Regional Weather Roundup
Issued by NWS

Home | Current Version | Previous Version | Graphics & Text | Print | Product List | Glossary On
Versions: 1 2 3 4 5 6 7 8 9 10 11 12 13 14 15 16 17 18 19 20 21 22 23 24 25 26 27 28 29 30 31 32 33 34 35 36 37 38 39 40 41 42 43 44 45 46 47 48 49 50
764
ASUS43 KLSX 260959
RWRMO

WEATHER SUMMARY FOR MISSOURI
NATIONAL WEATHER SERVICE SPRINGFIELD MO
500 AM CDT SUN MAR 26 2017

NOTE: "FAIR" INDICATES FEW OR NO CLOUDS BELOW 12,000 FEET WITH NO
       SIGNIFICANT WEATHER AND/OR OBSTRUCTIONS TO VISIBILITY.
       CURRENT SKY AND/OR WEATHER CONDITIONS ARE NOT AVAILABLE FOR
       CHILLICOTHE AND FARMINGTON.

MOZ001>031-035>038-043-044-053-054-261100-
...NORTHERN AND WESTERN MISSOURI...

CITY           SKY/WX    TMP DP  RH WIND       PRES   REMARKS
KANSAS CTY INT CLOUDY    42  41  96 W8        29.88R
KANSAS C DTWN  CLOUDY    45  42  89 W6        29.89R
LEE`S SUMMIT   CLOUDY    45  43  93 W9        29.88R
ST JOSEPH      CLOUDY    43  42  97 W6        29.89R
CHILLICOTHE      N/A     44  42  93 VRB5      29.86R
KIRKSVILLE     CLOUDY    46  45  96 NW6       29.80S

$$
MOZ066>068-077>081-088>096-101>105-261100-
...SOUTHWEST MISSOURI...

CITY           SKY/WX    TMP DP  RH WIND       PRES   REMARKS
SPRINGFIELD    CLOUDY    47  44  90 W7        29.89S
JOPLIN         CLOUDY    47  45  93 W5        29.92R

$$
MOZ032>034-039>042-045>050-055>058-069>072-261100-
...CENTRAL MISSOURI...

CITY           SKY/WX    TMP DP  RH WIND       PRES   REMARKS
COLUMBIA       CLOUDY    49  49 100 W7        29.84R
JEFFERSON CITY CLOUDY    52  48  86 SW6       29.85R
ROLLA          CLOUDY    47  46  97 S10       29.84S
SEDALIA        CLOUDY    49  32  52 W9        29.87R
WARRENSBURG    CLOUDY    45  43  93 W5        29.87S
OSAGE BEACH    CLOUDY   N/A N/A N/A SW6       29.87R

$$
MOZ051-052-059>065-261100-
...EAST CENTRAL MISSOURI...

CITY           SKY/WX    TMP DP  RH WIND       PRES   REMARKS
ST LOUIS INTL  CLOUDY    54  47  77 SW8       29.84S
SPIRIT OF STL  CLOUDY    52  49  89 W5        29.84S
ST CHARLES     CLOUDY    52  49  89 SW8       29.84S

$$
MOZ072>076-082>087-097>100-106>115-261100-
...SOUTH CENTRAL AND SOUTHEAST MISSOURI...

CITY           SKY/WX    TMP DP  RH WIND       PRES   REMARKS
CAPE GIRARDEAU CLOUDY    53  50  89 SW6       29.88R
FARMINGTON     CLOUDY    50  46  86 SW8       29.86S
POPLAR BLUFF   CLOUDY    52  48  86 S5        29.89S
WEST PLAINS    CLOUDY    48  44  86 W7        29.90R

$$




USA.gov is the U.S. government's official web portal to all federal, state and local government web resources and services.